Regional Weather Roundup
Issued by NWS Cleveland, OH

Home | Current Version | Previous Version | Text Only | Print | Product List | Glossary Off
Versions: 1 2 3 4 5 6 7 8 9 10 11 12 13 14 15 16 17 18 19 20 21 22 23 24 25 26 27 28 29 30 31 32 33 34 35 36 37 38 39 40 41 42 43 44 45 46 47 48 49 50

000
ASUS41 KCLE 231610
RWRCLE
OHIO REGIONAL WEATHER ROUNDUP
NATIONAL WEATHER SERVICE WILMINGTON, OH
1200 PM EDT FRI JUN 23 2017

NOTE: "FAIR" INDICATES FEW OR NO CLOUDS BELOW 12,000 FEET WITH NO
SIGNIFICANT WEATHER AND/OR OBSTRUCTIONS TO VISIBILITY.

OHZ001>008-015>018-024>027-034-035-043-044-231700-
   NORTHWEST OHIO

CITY           SKY/WX    TMP DP  RH WIND       PRES   REMARKS
DEFIANCE       FAIR      74  65  73 SW8       29.63R
FINDLAY        PTSUNNY   74  69  85 S10       29.63F
TOLEDO EXPRESS FAIR      74  71  91 S6        29.57F
TOLEDO EXEC    FAIR      79  71  76 SE12      29.57F
LIMA           RAIN      70  70 100 S6        29.68S FOG
$$

OHZ009>014-019>023-028>033-038-089-231700-
   NORTHEAST OHIO

CITY           SKY/WX    TMP DP  RH WIND       PRES   REMARKS
CLE-HOPKINS    LGT RAIN  77  73  87 SW10      29.65F
CLE-LAKEFRONT  PTSUNNY   77  73  87 SW12      29.62S
CUY CO. ARPT   CLOUDY    75  72  88 SW9       29.65F
LORAIN-ELYRIA  PTSUNNY   75  68  78 W10       29.65S
ASHTABULA      CLOUDY    73  72  96 SW9       29.65F
AKRON-CANTON   CLOUDY    76  70  82 SW17      29.68F
WOOSTER        RAIN      71  68  90 W16G25    29.69F FOG
MANSFIELD      RAIN      70  69  97 SW8       29.69F FOG
YOUNGSTOWN     LGT RAIN  74  71  91 SW10      29.68F FOG
$$

OHZ042-051>053-060>062-070>072-077>081-231700-
  SOUTHWEST OHIO

CITY           SKY/WX    TMP DP  RH WIND       PRES   REMARKS
CINC-COVINGTON CLOUDY    81  72  74 SW9G20    29.75F
CINC-LUNKEN    CLOUDY    80  73  79 SW14G21   29.74F
HAMILTON       LGT RAIN  78  74  87 SW13G21   29.74F
DAYTON         RAIN      73  72  96 SW15      29.73S FOG
WRIGHT-PAT AFB LGT RAIN  74  74 100 SW14      29.71F FOG
DAYTON GENERAL HVY RAIN  74  72  93 SW12      29.73F FOG
WILMINGTON     CLOUDY    76  73  91 SW16G24   29.74F
$$

OHZ036-037-039>041-045>050-054>059-063>069-073>076-082>088-231700-
  CENTRAL AND SOUTHEAST OHIO

CITY           SKY/WX    TMP DP  RH WIND       PRES   REMARKS
COLUMBUS       HVY RAIN  71  71 100 SW17G24   29.74R FOG
OSU AIRPORT    PTSUNNY   71  71 100 SW12      29.72R
BOLTON FIELD   LGT RAIN  70  70 100 W12       29.73F
RICKENBACK AFB CLOUDY    69  69  99 W10       29.73S
NEWARK         LGT RAIN  74  72  93 SW9       29.71F
MARION         HVY RAIN  70  68  93 W6        29.70S VSB 3/4
LANCASTER      CLOUDY    77  73  87 SW16G30   29.74F
ZANESVILLE     LGT RAIN  74  71  91 SW10G18   29.74F
NEW PHILLY     CLOUDY    75  72  90 SW9       29.72F
$$



USA.gov is the U.S. government's official web portal to all federal, state and local government web resources and services.